| time (UTC) | temp F | wind direction | speed MPH | gust MPH | rain 1hr in | rain 24hr in | rain mn in | humidity % | barometer mb |
| 20260508053533 | 54 | 189 | 12.0 | 13.0 | 0.00 | 0.00 | 0.00 | 98 | 1016.9 |
| 20260508052530 | 54 | 189 | 11.0 | 14.0 | 0.00 | 0.00 | 0.00 | 98 | 1017.0 |
| 20260508051526 | 53 | 194 | 12.0 | 14.0 | 0.00 | 0.00 | 0.00 | 98 | 1017.0 |
| 20260508050523 | 53 | 190 | 12.0 | 14.0 | 0.00 | 0.00 | 0.00 | 98 | 1016.9 |
| 20260508045521 | 54 | 182 | 10.0 | 11.0 | 0.00 | 0.00 | 0.00 | 98 | 1016.7 |
| 20260508044517 | 54 | 184 | 9.0 | 13.0 | 0.00 | 0.00 | 0.00 | 98 | 1016.6 |
| 20260508043535 | 53 | 192 | 11.0 | 14.0 | 0.00 | 0.00 | 0.00 | 98 | 1016.6 |
| 20260508042532 | 54 | 182 | 11.0 | 13.0 | 0.00 | 0.00 | 0.00 | 98 | 1016.5 |
| 20260508041529 | 53 | 182 | 10.0 | 12.0 | 0.00 | 0.00 | 0.00 | 99 | 1016.4 |
| 20260508040526 | 53 | 182 | 11.0 | 12.0 | 0.00 | 0.00 | 0.00 | 99 | 1016.2 |
| 20260508035524 | 53 | 185 | 11.0 | 15.0 | 0.00 | 0.00 | 0.00 | 99 | 1016.1 |
| 20260508034521 | 53 | 186 | 10.0 | 13.0 | 0.00 | 0.00 | 0.00 | 99 | 1016.2 |
| 20260508033518 | 53 | 180 | 10.0 | 13.0 | 0.00 | 0.00 | 0.00 | 99 | 1016.2 |
| 20260508032534 | 53 | 179 | 9.0 | 12.0 | 0.00 | 0.00 | 0.00 | 99 | 1016.3 |
| 20260508031532 | 53 | 183 | 10.0 | 13.0 | 0.00 | 0.00 | 0.00 | 99 | 1016.2 |
| 20260508030529 | 53 | 182 | 10.0 | 12.0 | 0.00 | 0.00 | 0.00 | 99 | 1016.0 |
| 20260508025526 | 52 | 182 | 10.0 | 12.0 | 0.00 | 0.00 | 0.00 | 99 | 1015.9 |
| 20260508024523 | 52 | 183 | 11.0 | 14.0 | 0.00 | 0.00 | 0.00 | 99 | 1015.9 |
| 20260508023600 | 52 | 183 | 10.0 | 14.0 | 0.00 | 0.00 | 0.00 | 99 | 1016.0 |
| 20260508022518 | 52 | 178 | 11.0 | 14.0 | 0.00 | 0.00 | 0.00 | 99 | 1016.0 |
| 20260508021535 | 52 | 177 | 13.0 | 14.0 | 0.00 | 0.00 | 0.00 | 99 | 1016.0 |
| 20260508020532 | 52 | 181 | 9.0 | 12.0 | 0.00 | 0.00 | 0.00 | 99 | 1016.0 |
| 20260508015549 | 52 | 178 | 11.0 | 13.0 | 0.00 | 0.00 | 0.00 | 99 | 1016.0 |
| 20260508014547 | 53 | 181 | 11.0 | 13.0 | 0.00 | 0.00 | 0.00 | 99 | 1016.0 |
| 20260508013523 | 52 | 180 | 10.0 | 11.0 | 0.00 | 0.00 | 0.00 | 99 | 1016.1 |
| 20260508012520 | 52 | 183 | 10.0 | 12.0 | 0.00 | 0.00 | 0.00 | 99 | 1016.1 |
| 20260508011517 | 52 | 181 | 11.0 | 14.0 | 0.00 | 0.00 | 0.00 | 98 | 1016.4 |
| 20260508010534 | 52 | 182 | 12.0 | 13.0 | 0.00 | 0.00 | 0.00 | 98 | 1016.3 |
| 20260508005531 | 52 | 181 | 10.0 | 11.0 | 0.00 | 0.00 | 0.00 | 98 | 1016.3 |
| 20260508004528 | 52 | 176 | 11.0 | 13.0 | 0.00 | 0.00 | 0.00 | 98 | 1016.4 |
| 20260508003525 | 53 | 176 | 11.0 | 12.0 | 0.00 | 0.00 | 0.00 | 98 | 1016.3 |
| 20260508002522 | 53 | 177 | 11.0 | 13.0 | 0.00 | 0.00 | 0.00 | 98 | 1016.5 |
| 20260508001539 | 53 | 181 | 10.0 | 12.0 | 0.00 | 0.00 | 0.00 | 98 | 1016.5 |
| 20260508000516 | 53 | 176 | 10.0 | 12.0 | 0.00 | 0.00 | 0.00 | 98 | 1016.5 |
| 20260507235534 | 53 | 166 | 11.0 | 13.0 | 0.00 | 0.00 | 0.00 | 98 | 1016.4 |
| 20260507234531 | 53 | 171 | 11.0 | 13.0 | 0.00 | 0.00 | 0.00 | 97 | 1016.5 |
| 20260507233528 | 54 | 162 | 11.0 | 15.0 | 0.00 | 0.00 | 0.00 | 97 | 1016.2 |
| 20260507232525 | 54 | 165 | 10.0 | 15.0 | 0.00 | 0.00 | 0.00 | 97 | 1016.4 |
| 20260507231522 | 54 | 153 | 10.0 | 15.0 | 0.00 | 0.00 | 0.00 | 97 | 1016.3 |
| 20260507230518 | 54 | 161 | 9.0 | 14.0 | 0.00 | 0.00 | 0.00 | 97 | 1016.4 |
| 20260507225516 | 54 | 156 | 10.0 | 14.0 | 0.00 | 0.00 | 0.00 | 97 | 1016.4 |
| 20260507224533 | 54 | 169 | 9.0 | 13.0 | 0.00 | 0.00 | 0.00 | 97 | 1016.6 |
| 20260507223530 | 54 | 159 | 10.0 | 14.0 | 0.00 | 0.00 | 0.00 | 97 | 1016.5 |
| 20260507222547 | 54 | 157 | 9.0 | 13.0 | 0.00 | 0.00 | 0.00 | 97 | 1016.7 |
| 20260507221523 | 54 | 155 | 9.0 | 15.0 | 0.00 | 0.00 | 0.00 | 97 | 1016.7 |
| 20260507220521 | 54 | 164 | 8.0 | 14.0 | 0.00 | 0.00 | 0.00 | 97 | 1016.7 |
| 20260507215518 | 54 | 146 | 10.0 | 15.0 | 0.00 | 0.00 | 0.00 | 97 | 1016.7 |
| 20260507214535 | 54 | 150 | 10.0 | 15.0 | 0.00 | 0.00 | 0.00 | 97 | 1016.8 |
| 20260507213532 | 54 | 146 | 9.0 | 15.0 | 0.00 | 0.00 | 0.00 | 98 | 1016.6 |
| 20260507212529 | 54 | 152 | 10.0 | 15.0 | 0.00 | 0.00 | 0.00 | 98 | 1016.7 |
| 20260507211526 | 54 | 145 | 9.0 | 15.0 | 0.00 | 0.00 | 0.00 | 98 | 1016.7 |
| 20260507210523 | 55 | 146 | 10.0 | 14.0 | 0.00 | 0.00 | 0.00 | 98 | 1016.6 |
| 20260507205600 | 55 | 152 | 9.0 | 12.0 | 0.00 | 0.00 | 0.00 | 97 | 1016.8 |
| 20260507204517 | 55 | 148 | 9.0 | 16.0 | 0.00 | 0.00 | 0.00 | 97 | 1016.7 |
| 20260507203534 | 55 | 150 | 10.0 | 16.0 | 0.00 | 0.00 | 0.00 | 97 | 1016.7 |
| 20260507202531 | 55 | 163 | 10.0 | 17.0 | 0.00 | 0.00 | 0.00 | 97 | 1016.6 |
| 20260507201528 | 55 | 156 | 10.0 | 16.0 | 0.00 | 0.00 | 0.00 | 97 | 1016.7 |
| 20260507200525 | 55 | 153 | 10.0 | 16.0 | 0.00 | 0.00 | 0.00 | 97 | 1016.8 |
| 20260507195522 | 55 | 150 | 9.0 | 14.0 | 0.00 | 0.00 | 0.00 | 97 | 1016.8 |
| 20260507194519 | 55 | 150 | 8.0 | 15.0 | 0.00 | 0.00 | 0.00 | 97 | 1016.8 |
| 20260507193536 | 55 | 142 | 10.0 | 15.0 | 0.00 | 0.00 | 0.00 | 97 | 1016.9 |
| 20260507192533 | 55 | 154 | 8.0 | 13.0 | 0.00 | 0.00 | 0.00 | 96 | 1016.9 |
| 20260507191530 | 55 | 157 | 9.0 | 13.0 | 0.00 | 0.00 | 0.00 | 96 | 1016.9 |
| 20260507190547 | 55 | 156 | 8.0 | 14.0 | 0.00 | 0.00 | 0.00 | 96 | 1016.9 |
| 20260507185524 | 55 | 144 | 10.0 | 15.0 | 0.00 | 0.00 | 0.00 | 96 | 1016.8 |
| 20260507184521 | 55 | 159 | 9.0 | 14.0 | 0.00 | 0.00 | 0.00 | 95 | 1016.9 |
| 20260507183518 | 55 | 147 | 11.0 | 18.0 | 0.00 | 0.00 | 0.00 | 95 | 1016.6 |
| 20260507182535 | 55 | 148 | 11.0 | 20.0 | 0.00 | 0.00 | 0.00 | 95 | 1016.6 |
| 20260507181532 | 55 | 146 | 10.0 | 19.0 | 0.00 | 0.00 | 0.00 | 95 | 1016.3 |
| 20260507180529 | 55 | 150 | 9.0 | 16.0 | 0.00 | 0.00 | 0.00 | 95 | 1016.3 |
| 20260507175526 | 55 | 145 | 9.0 | 17.0 | 0.00 | 0.00 | 0.00 | 95 | 1016.4 |
| 20260507174523 | 55 | 151 | 9.0 | 16.0 | 0.00 | 0.00 | 0.00 | 95 | 1016.4 |
| 20260507173520 | 55 | 149 | 11.0 | 18.0 | 0.00 | 0.00 | 0.00 | 95 | 1016.4 |
| 20260507172517 | 55 | 139 | 10.0 | 19.0 | 0.00 | 0.00 | 0.00 | 95 | 1016.3 |
| 20260507171534 | 55 | 130 | 10.0 | 18.0 | 0.00 | 0.00 | 0.00 | 94 | 1016.2 |
| 20260507170532 | 55 | 139 | 10.0 | 17.0 | 0.00 | 0.00 | 0.00 | 94 | 1016.2 |
| 20260507165529 | 55 | 132 | 10.0 | 16.0 | 0.00 | 0.00 | 0.00 | 93 | 1016.2 |
| 20260507164547 | 55 | 144 | 10.0 | 20.0 | 0.00 | 0.00 | 0.00 | 93 | 1016.2 |
| 20260507163523 | 55 | 127 | 10.0 | 19.0 | 0.00 | 0.00 | 0.00 | 92 | 1016.2 |
| 20260507162520 | 55 | 141 | 10.0 | 17.0 | 0.00 | 0.00 | 0.00 | 92 | 1016.1 |
| 20260507161517 | 56 | 145 | 10.0 | 19.0 | 0.00 | 0.00 | 0.00 | 92 | 1016.2 |
| 20260507160533 | 56 | 151 | 9.0 | 15.0 | 0.00 | 0.00 | 0.00 | 91 | 1016.1 |
| 20260507155530 | 56 | 149 | 9.0 | 14.0 | 0.00 | 0.00 | 0.00 | 90 | 1016.2 |
| 20260507154527 | 56 | 155 | 9.0 | 16.0 | 0.00 | 0.00 | 0.00 | 89 | 1016.2 |
| 20260507153544 | 57 | 148 | 9.0 | 17.0 | 0.00 | 0.00 | 0.00 | 88 | 1016.2 |
| 20260507152521 | 57 | 147 | 9.0 | 17.0 | 0.00 | 0.00 | 0.00 | 88 | 1016.1 |
| 20260507151518 | 57 | 150 | 9.0 | 17.0 | 0.00 | 0.00 | 0.00 | 86 | 1016.2 |
| 20260507150555 | 57 | 143 | 9.0 | 18.0 | 0.00 | 0.00 | 0.00 | 86 | 1016.3 |
| 20260507145532 | 57 | 144 | 10.0 | 15.0 | 0.00 | 0.00 | 0.00 | 86 | 1016.4 |
| 20260507144529 | 58 | 131 | 9.0 | 16.0 | 0.00 | 0.00 | 0.00 | 85 | 1016.4 |
| 20260507143526 | 58 | 142 | 10.0 | 18.0 | 0.00 | 0.00 | 0.00 | 85 | 1016.4 |
| 20260507142522 | 58 | 137 | 9.0 | 18.0 | 0.00 | 0.00 | 0.00 | 84 | 1016.5 |
| 20260507141520 | 58 | 143 | 9.0 | 18.0 | 0.00 | 0.00 | 0.00 | 84 | 1016.4 |
| 20260507140517 | 59 | 154 | 9.0 | 15.0 | 0.00 | 0.00 | 0.00 | 84 | 1016.5 |
| 20260507135534 | 59 | 136 | 7.0 | 16.0 | 0.00 | 0.00 | 0.00 | 83 | 1016.5 |
| 20260507134551 | 58 | 141 | 9.0 | 17.0 | 0.00 | 0.00 | 0.00 | 83 | 1016.5 |
| 20260507133528 | 58 | 160 | 9.0 | 18.0 | 0.00 | 0.00 | 0.00 | 84 | 1016.5 |
| 20260507132525 | 58 | 157 | 10.0 | 19.0 | 0.00 | 0.00 | 0.00 | 84 | 1016.4 |
| 20260507131522 | 58 | 130 | 10.0 | 15.0 | 0.00 | 0.00 | 0.00 | 83 | 1016.5 |
| 20260507130518 | 58 | 127 | 10.0 | 18.0 | 0.00 | 0.00 | 0.00 | 84 | 1016.6 |
| 20260507125556 | 58 | 140 | 10.0 | 18.0 | 0.00 | 0.00 | 0.00 | 85 | 1016.8 |
| 20260507124533 | 57 | 123 | 9.0 | 16.0 | 0.00 | 0.00 | 0.00 | 86 | 1016.8 |
| 20260507123529 | 57 | 121 | 12.0 | 19.0 | 0.00 | 0.00 | 0.00 | 86 | 1016.8 |
| 20260507122527 | 57 | 114 | 11.0 | 19.0 | 0.00 | 0.00 | 0.00 | 85 | 1017.0 |
| 20260507121524 | 58 | 111 | 9.0 | 15.0 | 0.00 | 0.00 | 0.00 | 84 | 1017.0 |
| 20260507120521 | 57 | 125 | 9.0 | 17.0 | 0.00 | 0.00 | 0.00 | 85 | 1017.1 |
| 20260507115537 | 58 | 148 | 10.0 | 17.0 | 0.00 | 0.00 | 0.00 | 84 | 1017.3 |
| 20260507114554 | 58 | 135 | 9.0 | 15.0 | 0.00 | 0.00 | 0.00 | 84 | 1017.3 |
| 20260507113531 | 58 | 138 | 11.0 | 17.0 | 0.00 | 0.00 | 0.00 | 84 | 1017.2 |
| 20260507112528 | 58 | 129 | 11.0 | 19.0 | 0.00 | 0.00 | 0.00 | 83 | 1017.3 |
| 20260507111524 | 58 | 144 | 9.0 | 17.0 | 0.00 | 0.00 | 0.00 | 82 | 1017.3 |
| 20260507110521 | 58 | 122 | 10.0 | 17.0 | 0.00 | 0.00 | 0.00 | 83 | 1017.4 |
| 20260507105518 | 58 | 139 | 10.0 | 17.0 | 0.00 | 0.00 | 0.00 | 82 | 1017.4 |
| 20260507104516 | 57 | 119 | 9.0 | 19.0 | 0.00 | 0.00 | 0.00 | 82 | 1017.3 |
| 20260507103533 | 57 | 137 | 10.0 | 19.0 | 0.00 | 0.00 | 0.00 | 82 | 1017.4 |
| 20260507102530 | 58 | 131 | 10.0 | 19.0 | 0.00 | 0.00 | 0.00 | 81 | 1017.6 |
| 20260507101527 | 57 | 126 | 9.0 | 17.0 | 0.00 | 0.00 | 0.00 | 82 | 1017.6 |
| 20260507100524 | 57 | 124 | 10.0 | 17.0 | 0.00 | 0.00 | 0.00 | 81 | 1017.6 |
| 20260507095521 | 58 | 139 | 9.0 | 16.0 | 0.00 | 0.00 | 0.00 | 81 | 1017.5 |
| 20260507094518 | 57 | 135 | 11.0 | 17.0 | 0.00 | 0.00 | 0.00 | 81 | 1017.7 |
| 20260507093536 | 58 | 155 | 10.0 | 21.0 | 0.00 | 0.00 | 0.00 | 81 | 1017.7 |
| 20260507092532 | 56 | 133 | 9.0 | 14.0 | 0.00 | 0.00 | 0.00 | 84 | 1017.6 |
| 20260507091529 | 57 | 140 | 10.0 | 19.0 | 0.00 | 0.00 | 0.00 | 84 | 1017.6 |
| 20260507090527 | 56 | 138 | 11.0 | 21.0 | 0.00 | 0.00 | 0.00 | 85 | 1017.7 |
| 20260507085523 | 56 | 140 | 10.0 | 17.0 | 0.00 | 0.00 | 0.00 | 84 | 1017.7 |
| 20260507084541 | 55 | 141 | 9.0 | 18.0 | 0.00 | 0.00 | 0.00 | 85 | 1017.6 |
| 20260507083518 | 56 | 139 | 10.0 | 16.0 | 0.00 | 0.00 | 0.00 | 84 | 1017.6 |
| 20260507082535 | 56 | 162 | 11.0 | 18.0 | 0.00 | 0.00 | 0.00 | 85 | 1017.6 |
| 20260507081532 | 55 | 143 | 10.0 | 17.0 | 0.00 | 0.00 | 0.00 | 85 | 1017.6 |
| 20260507080529 | 55 | 148 | 9.0 | 18.0 | 0.00 | 0.00 | 0.00 | 82 | 1017.5 |
| 20260507075526 | 56 | 163 | 10.0 | 16.0 | 0.00 | 0.00 | 0.00 | 83 | 1017.7 |
| 20260507074543 | 55 | 156 | 8.0 | 13.0 | 0.00 | 0.00 | 0.00 | 82 | 1017.8 |
| 20260507073520 | 57 | 170 | 9.0 | 13.0 | 0.00 | 0.00 | 0.00 | 81 | 1017.8 |
| 20260507072517 | 56 | 161 | 10.0 | 15.0 | 0.00 | 0.00 | 0.00 | 82 | 1017.7 |
| 20260507071534 | 58 | 164 | 10.0 | 15.0 | 0.00 | 0.00 | 0.00 | 76 | 1017.7 |
| 20260507070531 | 57 | 171 | 9.0 | 12.0 | 0.00 | 0.00 | 0.00 | 81 | 1017.9 |
| 20260507065528 | 54 | 158 | 11.0 | 14.0 | 0.00 | 0.00 | 0.00 | 86 | 1017.9 |
| 20260507064525 | 55 | 179 | 10.0 | 12.0 | 0.00 | 0.00 | 0.00 | 96 | 1017.8 |
| 20260507063542 | 53 | 174 | 10.0 | 13.0 | 0.00 | 0.00 | 0.00 | 99 | 1017.7 |
| 20260507062519 | 52 | 187 | 11.0 | 13.0 | 0.00 | 0.00 | 0.00 | 99 | 1017.9 |
| 20260507061516 | 51 | 191 | 11.0 | 14.0 | 0.00 | 0.00 | 0.00 | 99 | 1017.9 |
| 20260507060534 | 51 | 183 | 13.0 | 15.0 | 0.00 | 0.00 | 0.00 | 99 | 1017.9 |
| 20260507055550 | 51 | 181 | 11.0 | 13.0 | 0.00 | 0.00 | 0.00 | 99 | 1017.8 |
| 20260507054527 | 51 | 181 | 10.0 | 12.0 | 0.00 | 0.00 | 0.00 | 99 | 1017.9 |